Time,TemperatureF,DewpointF,PressureIn,WindDirection,WindDirectionDegrees,WindSpeedMPH,WindSpeedGustMPH,Humidity,HourlyPrecipIn,Conditions,Clouds,dailyrainin,SoftwareType,DateUTC
2013-08-22 00:00:00,73.7,69.0,30.00,West,280,0.0,1.0,85,0.00,,,0.00,weatherlink.com 1.10,2013-08-22 05:00:00,
2013-08-22 00:15:00,73.6,69.0,30.00,West,280,0.0,1.0,85,0.00,,,0.00,weatherlink.com 1.10,2013-08-22 05:15:00,
2013-08-22 00:30:00,73.5,69.0,30.01,West,280,0.0,0.0,86,0.00,,,0.00,weatherlink.com 1.10,2013-08-22 05:30:00,
2013-08-22 00:45:00,73.4,69.0,30.00,West,280,0.0,0.0,86,0.00,,,0.00,weatherlink.com 1.10,2013-08-22 05:45:00,
2013-08-22 01:00:00,73.4,69.0,30.01,West,280,0.0,0.0,86,0.00,,,0.00,weatherlink.com 1.10,2013-08-22 06:00:00,
2013-08-22 01:15:00,73.5,69.0,30.01,West,280,0.0,2.0,86,0.00,,,0.00,weatherlink.com 1.10,2013-08-22 06:15:00,
2013-08-22 01:30:00,73.5,70.0,30.01,West,280,0.0,0.0,87,0.00,,,0.00,weatherlink.com 1.10,2013-08-22 06:30:00,
2013-08-22 01:45:00,73.5,70.0,30.01,West,280,0.0,0.0,87,0.00,,,0.00,weatherlink.com 1.10,2013-08-22 06:45:00,
2013-08-22 02:00:00,73.5,70.0,30.01,West,280,0.0,0.0,87,0.00,,,0.00,weatherlink.com 1.10,2013-08-22 07:00:00,
2013-08-22 02:15:00,73.3,69.0,30.01,West,280,0.0,0.0,87,0.00,,,0.00,weatherlink.com 1.10,2013-08-22 07:15:00,
2013-08-22 02:30:00,73.3,70.0,30.00,West,280,0.0,0.0,88,0.00,,,0.00,weatherlink.com 1.10,2013-08-22 07:30:00,
2013-08-22 02:45:00,73.2,70.0,30.00,West,280,0.0,0.0,88,0.00,,,0.00,weatherlink.com 1.10,2013-08-22 07:45:00,
2013-08-22 03:01:00,73.0,69.0,30.00,West,280,0.0,0.0,88,0.00,,,0.00,weatherlink.com 1.10,2013-08-22 08:01:00,
2013-08-22 03:16:00,73.0,69.0,30.00,West,280,0.0,1.0,88,0.00,,,0.00,weatherlink.com 1.10,2013-08-22 08:16:00,
2013-08-22 03:31:00,72.8,69.0,30.01,West,280,0.0,0.0,88,0.00,,,0.00,weatherlink.com 1.10,2013-08-22 08:31:00,
2013-08-22 03:46:00,72.7,69.0,30.00,West,280,0.0,2.0,88,0.00,,,0.00,weatherlink.com 1.10,2013-08-22 08:46:00,
2013-08-22 04:01:00,72.5,69.0,30.03,NNW,333,4.0,7.0,88,0.00,,,0.00,weatherlink.com 1.10,2013-08-22 09:01:00,
2013-08-22 04:16:00,72.0,69.0,30.08,NW,309,22.0,22.0,89,0.03,,,0.03,weatherlink.com 1.10,2013-08-22 09:16:00,
2013-08-22 04:31:00,68.6,65.0,30.10,WSW,244,10.0,18.0,87,0.20,,,0.20,weatherlink.com 1.10,2013-08-22 09:31:00,
2013-08-22 04:46:00,67.4,64.0,30.07,NW,308,5.0,14.0,89,0.33,,,0.33,weatherlink.com 1.10,2013-08-22 09:46:00,
2013-08-22 05:01:00,67.0,64.0,30.07,NW,305,0.0,6.0,89,0.34,,,0.34,weatherlink.com 1.10,2013-08-22 10:01:00,
2013-08-22 05:16:00,66.7,64.0,30.07,NW,305,0.0,3.0,90,0.32,,,0.35,weatherlink.com 1.10,2013-08-22 10:16:00,
2013-08-22 05:31:00,66.5,64.0,30.06,NW,306,0.0,2.0,90,0.19,,,0.39,weatherlink.com 1.10,2013-08-22 10:31:00,
2013-08-22 05:46:00,66.4,64.0,30.05,NW,306,0.0,1.0,90,0.09,,,0.42,weatherlink.com 1.10,2013-08-22 10:46:00,
2013-08-22 07:31:00,65.8,63.0,30.01,NW,318,0.0,8.0,91,0.01,,,0.52,weatherlink.com 1.10,2013-08-22 12:31:00,
2013-08-22 07:46:00,66.1,64.0,30.03,NW,321,1.0,4.0,91,0.00,,,0.52,weatherlink.com 1.10,2013-08-22 12:46:00,
2013-08-22 08:01:00,66.7,64.0,30.04,NNW,328,5.0,13.0,90,0.00,,,0.52,weatherlink.com 1.10,2013-08-22 13:01:00,
2013-08-22 08:16:00,67.2,64.0,30.05,NNW,333,0.0,9.0,89,0.00,,,0.52,weatherlink.com 1.10,2013-08-22 13:16:00,
2013-08-22 08:31:00,67.5,64.0,30.07,NNW,341,0.0,2.0,89,0.00,,,0.52,weatherlink.com 1.10,2013-08-22 13:31:00,
2013-08-22 08:46:00,67.7,64.0,30.10,NNW,341,0.0,1.0,89,0.00,,,0.52,weatherlink.com 1.10,2013-08-22 13:46:00,
2013-08-22 09:01:00,67.7,65.0,30.09,NE,55,0.0,2.0,90,0.00,,,0.52,weatherlink.com 1.10,2013-08-22 14:01:00,
2013-08-22 09:16:00,67.7,64.0,30.09,ENE,58,1.0,1.0,89,0.00,,,0.52,weatherlink.com 1.10,2013-08-22 14:16:00,
2013-08-22 09:31:00,67.8,65.0,30.09,South,185,0.0,2.0,89,0.00,,,0.52,weatherlink.com 1.10,2013-08-22 14:31:00,
2013-08-22 09:46:00,68.0,65.0,30.09,South,184,0.0,2.0,89,0.00,,,0.52,weatherlink.com 1.10,2013-08-22 14:46:00,
2013-08-22 10:01:00,68.3,65.0,30.09,South,184,0.0,1.0,89,0.00,,,0.52,weatherlink.com 1.10,2013-08-22 15:01:00,
2013-08-22 10:16:00,68.8,65.0,30.09,SSE,159,0.0,3.0,87,0.00,,,0.52,weatherlink.com 1.10,2013-08-22 15:16:00,
2013-08-22 10:31:00,69.9,66.0,30.09,SSE,159,0.0,1.0,86,0.00,,,0.52,weatherlink.com 1.10,2013-08-22 15:31:00,
2013-08-22 10:46:00,70.4,65.0,30.09,ESE,113,0.0,4.0,83,0.00,,,0.52,weatherlink.com 1.10,2013-08-22 15:46:00,
2013-08-22 11:01:00,71.8,66.0,30.09,ESE,113,0.0,3.0,82,0.00,,,0.52,weatherlink.com 1.10,2013-08-22 16:01:00,
2013-08-22 11:16:00,73.5,66.0,30.09,East,82,1.0,5.0,77,0.00,,,0.52,weatherlink.com 1.10,2013-08-22 16:16:00,
2013-08-22 11:31:00,76.1,66.0,30.08,East,84,0.0,4.0,72,0.00,,,0.52,weatherlink.com 1.10,2013-08-22 16:31:00,
2013-08-22 11:46:00,75.8,66.0,30.08,East,86,0.0,2.0,71,0.00,,,0.52,weatherlink.com 1.10,2013-08-22 16:46:00,
2013-08-22 12:01:00,76.2,67.0,30.08,East,86,0.0,2.0,73,0.00,,,0.52,weatherlink.com 1.10,2013-08-22 17:01:00,
2013-08-22 12:16:00,77.1,67.0,30.08,NE,53,7.0,7.0,71,0.00,,,0.52,weatherlink.com 1.10,2013-08-22 17:16:00,
2013-08-22 12:31:00,77.3,67.0,30.08,East,84,0.0,4.0,70,0.00,,,0.52,weatherlink.com 1.10,2013-08-22 17:31:00,
2013-08-22 12:46:00,77.8,67.0,30.08,East,81,0.0,5.0,70,0.00,,,0.52,weatherlink.com 1.10,2013-08-22 17:46:00,
2013-08-22 13:01:00,79.4,67.0,30.08,East,81,0.0,3.0,65,0.00,,,0.52,weatherlink.com 1.10,2013-08-22 18:01:00,
2013-08-22 13:16:00,80.2,67.0,30.09,East,86,0.0,3.0,65,0.00,,,0.52,weatherlink.com 1.10,2013-08-22 18:16:00,
2013-08-22 13:31:00,80.8,67.0,30.09,East,86,1.0,6.0,63,0.00,,,0.52,weatherlink.com 1.10,2013-08-22 18:31:00,
2013-08-22 13:46:00,80.0,68.0,30.10,SE,126,0.0,3.0,66,0.00,,,0.52,weatherlink.com 1.10,2013-08-22 18:46:00,
2013-08-22 14:02:00,79.3,67.0,30.10,SE,125,0.0,3.0,65,0.00,,,0.52,weatherlink.com 1.10,2013-08-22 19:02:00,
2013-08-22 14:17:00,78.9,67.0,30.10,SE,126,0.0,0.0,67,0.00,,,0.52,weatherlink.com 1.10,2013-08-22 19:17:00,
2013-08-22 14:32:00,78.6,66.0,30.10,SE,126,0.0,1.0,66,0.00,,,0.52,weatherlink.com 1.10,2013-08-22 19:32:00,
2013-08-22 14:47:00,78.9,66.0,30.10,East,84,0.0,6.0,65,0.00,,,0.52,weatherlink.com 1.10,2013-08-22 19:47:00,
2013-08-22 15:02:00,79.5,66.0,30.10,East,83,0.0,1.0,64,0.00,,,0.52,weatherlink.com 1.10,2013-08-22 20:02:00,
2013-08-22 15:17:00,79.1,66.0,30.10,East,83,0.0,6.0,64,0.00,,,0.52,weatherlink.com 1.10,2013-08-22 20:17:00,
2013-08-22 15:32:00,79.5,66.0,30.10,East,84,0.0,2.0,63,0.00,,,0.52,weatherlink.com 1.10,2013-08-22 20:32:00,
2013-08-22 15:47:00,79.7,66.0,30.10,East,83,0.0,6.0,63,0.00,,,0.52,weatherlink.com 1.10,2013-08-22 20:47:00,
2013-08-22 16:02:00,81.2,64.0,30.10,East,84,1.0,4.0,57,0.00,,,0.52,weatherlink.com 1.10,2013-08-22 21:02:00,
2013-08-22 16:17:00,80.7,66.0,30.10,East,84,3.0,3.0,61,0.00,,,0.52,weatherlink.com 1.10,2013-08-22 21:17:00,
2013-08-22 16:32:00,81.4,66.0,30.10,East,84,0.0,3.0,60,0.00,,,0.52,weatherlink.com 1.10,2013-08-22 21:32:00,
2013-08-22 16:47:00,80.6,66.0,30.10,East,84,0.0,2.0,61,0.00,,,0.52,weatherlink.com 1.10,2013-08-22 21:47:00,
2013-08-22 17:02:00,79.8,67.0,30.09,East,84,0.0,4.0,64,0.00,,,0.52,weatherlink.com 1.10,2013-08-22 22:02:00,
2013-08-22 17:17:00,79.9,66.0,30.09,East,86,0.0,2.0,63,0.00,,,0.52,weatherlink.com 1.10,2013-08-22 22:17:00,
2013-08-22 17:32:00,79.3,66.0,30.09,East,86,0.0,2.0,63,0.00,,,0.52,weatherlink.com 1.10,2013-08-22 22:32:00,
2013-08-22 17:47:00,79.8,66.0,30.09,East,86,0.0,1.0,63,0.00,,,0.52,weatherlink.com 1.10,2013-08-22 22:47:00,
2013-08-22 18:02:00,80.1,66.0,30.09,East,86,0.0,3.0,62,0.00,,,0.52,weatherlink.com 1.10,2013-08-22 23:02:00,
2013-08-22 18:17:00,80.5,66.0,30.09,East,86,0.0,2.0,62,0.00,,,0.52,weatherlink.com 1.10,2013-08-22 23:17:00,
2013-08-22 18:32:00,80.2,66.0,30.09,East,86,0.0,2.0,63,0.00,,,0.52,weatherlink.com 1.10,2013-08-22 23:32:00,
2013-08-22 18:47:00,79.7,66.0,30.09,East,86,0.0,1.0,63,0.00,,,0.52,weatherlink.com 1.10,2013-08-22 23:47:00,
2013-08-22 19:02:00,78.9,66.0,30.09,East,86,0.0,1.0,65,0.00,,,0.52,weatherlink.com 1.10,2013-08-23 00:02:00,
2013-08-22 19:17:00,78.2,66.0,30.09,East,86,0.0,1.0,67,0.00,,,0.52,weatherlink.com 1.10,2013-08-23 00:17:00,
2013-08-22 19:32:00,77.8,67.0,30.09,East,86,0.0,0.0,69,0.00,,,0.52,weatherlink.com 1.10,2013-08-23 00:32:00,
2013-08-22 19:47:00,77.1,67.0,30.09,East,86,0.0,0.0,71,0.00,,,0.52,weatherlink.com 1.10,2013-08-23 00:47:00,
2013-08-22 20:17:00,75.0,67.0,30.09,East,86,0.0,0.0,76,0.00,,,0.52,weatherlink.com 1.10,2013-08-23 01:17:00,
2013-08-22 20:32:00,73.7,66.0,30.09,East,86,0.0,0.0,78,0.00,,,0.52,weatherlink.com 1.10,2013-08-23 01:32:00,
2013-08-22 20:47:00,73.0,67.0,30.10,East,86,0.0,0.0,80,0.00,,,0.52,weatherlink.com 1.10,2013-08-23 01:47:00,
2013-08-22 21:02:00,72.5,66.0,30.10,East,86,0.0,0.0,80,0.00,,,0.52,weatherlink.com 1.10,2013-08-23 02:02:00,
2013-08-22 21:17:00,72.2,65.0,30.11,East,86,0.0,0.0,79,0.00,,,0.52,weatherlink.com 1.10,2013-08-23 02:17:00,
2013-08-22 21:32:00,71.5,65.0,30.11,East,86,0.0,0.0,80,0.00,,,0.52,weatherlink.com 1.10,2013-08-23 02:32:00,
2013-08-22 21:47:00,71.0,65.0,30.11,East,86,0.0,0.0,81,0.00,,,0.52,weatherlink.com 1.10,2013-08-23 02:47:00,
2013-08-22 22:02:00,70.9,65.0,30.11,East,86,0.0,0.0,81,0.00,,,0.52,weatherlink.com 1.10,2013-08-23 03:02:00,
2013-08-22 22:17:00,70.8,65.0,30.11,East,86,0.0,0.0,82,0.00,,,0.52,weatherlink.com 1.10,2013-08-23 03:17:00,
2013-08-22 22:32:00,70.4,65.0,30.12,East,86,0.0,0.0,82,0.00,,,0.52,weatherlink.com 1.10,2013-08-23 03:32:00,
2013-08-22 22:47:00,70.2,65.0,30.12,East,86,0.0,1.0,83,0.00,,,0.52,weatherlink.com 1.10,2013-08-23 03:47:00,
2013-08-22 23:02:00,69.7,65.0,30.12,East,86,0.0,1.0,84,0.00,,,0.52,weatherlink.com 1.10,2013-08-23 04:02:00,
2013-08-22 23:17:00,68.9,65.0,30.12,East,86,0.0,0.0,86,0.00,,,0.52,weatherlink.com 1.10,2013-08-23 04:17:00,
2013-08-22 23:32:00,68.4,64.0,30.12,East,86,0.0,0.0,87,0.00,,,0.52,weatherlink.com 1.10,2013-08-23 04:32:00,
2013-08-22 23:47:00,68.0,64.0,30.12,East,86,0.0,0.0,87,0.00,,,0.52,weatherlink.com 1.10,2013-08-23 04:47:00,